timestamp,wind_dir_avg,wind_spd_max_dir,wind_spd_avg,wind_spd_gust,battery_voltage,lat,long
2018-06-03 00:00:00+00:00,64.0,60.0,5.55,6.09,,47.59359,-54.27349
2018-06-03 00:10:00+00:00,51.0,48.0,4.64,5.38,,47.59359,-54.27349
2018-06-03 00:20:00+00:00,21.0,28.0,6.81,8.68,,47.59359,-54.27349
2018-06-03 00:30:00+00:00,29.0,32.0,6.86,7.72,,47.59359,-54.27349
2018-06-03 00:40:00+00:00,26.0,28.0,8.39,9.57,,47.59359,-54.27349
2018-06-03 00:50:00+00:00,32.0,36.0,9.38,10.89,,47.59359,-54.27349
2018-06-03 01:00:00+00:00,35.0,36.0,8.57,9.5,,47.59359,-54.27349
2018-06-03 01:10:00+00:00,33.0,34.0,8.13,8.99,,47.59359,-54.27349
2018-06-03 01:20:00+00:00,31.0,32.0,6.67,7.37,,47.59359,-54.27349
2018-06-03 01:30:00+00:00,33.0,33.0,7.93,8.62,,47.59359,-54.27349
2018-06-03 01:40:00+00:00,28.0,28.0,6.25,6.92,,47.59359,-54.27349
2018-06-03 01:50:00+00:00,35.0,37.0,8.42,9.01,,47.59359,-54.27349
2018-06-03 02:00:00+00:00,33.0,30.0,8.52,9.38,,47.59359,-54.27349
2018-06-03 02:10:00+00:00,32.0,36.0,6.92,7.9,,47.59359,-54.27349
2018-06-03 02:20:00+00:00,27.0,31.0,6.71,7.63,,47.59359,-54.27349
2018-06-03 02:30:00+00:00,26.0,28.0,7.89,8.61,,47.59359,-54.27349
2018-06-03 02:40:00+00:00,35.0,34.0,6.02,6.93,,47.59359,-54.27349
2018-06-03 02:50:00+00:00,27.0,25.0,7.08,7.99,,47.59359,-54.27349
2018-06-03 03:00:00+00:00,32.0,34.0,8.07,9.16,,47.59359,-54.27349
2018-06-03 03:10:00+00:00,25.0,29.0,7.1,8.18,,47.59359,-54.27349
2018-06-03 03:20:00+00:00,28.0,31.0,8.33,9.49,,47.59359,-54.27349
2018-06-03 03:30:00+00:00,28.0,33.0,7.25,8.35,,47.59359,-54.27349
2018-06-03 03:40:00+00:00,34.0,35.0,6.97,7.64,,47.59359,-54.27349
2018-06-03 03:50:00+00:00,39.0,42.0,9.79,10.96,,47.59359,-54.27349
2018-06-03 04:00:00+00:00,39.0,36.0,8.59,9.52,,47.59359,-54.27349
2018-06-03 04:10:00+00:00,33.0,34.0,6.8,7.34,,47.59359,-54.27349
2018-06-03 04:20:00+00:00,31.0,34.0,7.75,8.54,,47.59359,-54.27349
2018-06-03 04:30:00+00:00,36.0,39.0,7.7,8.6,,47.59359,-54.27349
2018-06-03 04:40:00+00:00,39.0,42.0,8.38,9.19,,47.59359,-54.27349
2018-06-03 04:50:00+00:00,39.0,41.0,8.54,9.71,,47.59359,-54.27349
2018-06-03 05:00:00+00:00,42.0,40.0,10.0,10.91,,47.59359,-54.27349
2018-06-03 05:10:00+00:00,41.0,38.0,8.42,9.42,,47.59359,-54.27349
2018-06-03 05:20:00+00:00,43.0,42.0,10.75,11.91,,47.59359,-54.27349
2018-06-03 05:30:00+00:00,40.0,47.0,10.65,11.57,,47.59359,-54.27349
2018-06-03 05:40:00+00:00,46.0,43.0,11.34,12.44,,47.59359,-54.27349
2018-06-03 05:50:00+00:00,41.0,44.0,11.34,12.91,,47.59359,-54.27349
2018-06-03 06:00:00+00:00,41.0,37.0,10.65,11.85,,47.59359,-54.27349
2018-06-03 06:10:00+00:00,43.0,41.0,11.28,11.89,,47.59359,-54.27349
2018-06-03 06:20:00+00:00,42.0,42.0,9.94,10.84,,47.59359,-54.27349
2018-06-03 06:30:00+00:00,36.0,35.0,10.26,11.48,,47.59359,-54.27349
2018-06-03 06:40:00+00:00,38.0,38.0,9.3,10.15,,47.59359,-54.27349
2018-06-03 06:50:00+00:00,40.0,34.0,9.33,10.57,,47.59359,-54.27349
2018-06-03 07:00:00+00:00,42.0,39.0,8.93,10.4,,47.59359,-54.27349
2018-06-03 07:10:00+00:00,41.0,40.0,10.36,11.43,,47.59359,-54.27349
2018-06-03 07:20:00+00:00,44.0,48.0,10.06,11.6,,47.59359,-54.27349
2018-06-03 07:30:00+00:00,43.0,38.0,10.71,12.22,,47.59359,-54.27349
2018-06-03 07:40:00+00:00,40.0,36.0,10.6,12.25,,47.59359,-54.27349
2018-06-03 07:50:00+00:00,37.0,42.0,10.89,12.05,,47.59359,-54.27349
2018-06-03 08:00:00+00:00,32.0,35.0,9.79,11.71,,47.59359,-54.27349
2018-06-03 08:10:00+00:00,35.0,34.0,10.94,12.44,,47.59359,-54.27349
2018-06-03 08:20:00+00:00,39.0,45.0,8.78,9.69,,47.59359,-54.27349
2018-06-03 08:30:00+00:00,35.0,30.0,8.86,10.18,,47.59359,-54.27349
2018-06-03 08:40:00+00:00,33.0,32.0,8.29,9.31,,47.59359,-54.27349
2018-06-03 08:50:00+00:00,34.0,33.0,10.45,12.32,,47.59359,-54.27349
2018-06-03 09:00:00+00:00,29.0,27.0,8.84,10.3,,47.59359,-54.27349
2018-06-03 09:10:00+00:00,36.0,33.0,8.85,10.96,,47.59359,-54.27349
2018-06-03 09:20:00+00:00,27.0,35.0,9.66,11.94,,47.59359,-54.27349
2018-06-03 09:30:00+00:00,35.0,40.0,9.35,10.92,,47.59359,-54.27349
2018-06-03 09:40:00+00:00,26.0,31.0,8.54,10.08,,47.59359,-54.27349
2018-06-03 09:50:00+00:00,26.0,29.0,9.15,11.58,,47.59359,-54.27349
2018-06-03 10:00:00+00:00,26.0,34.0,11.26,12.3,,47.59359,-54.27349
2018-06-03 10:10:00+00:00,32.0,30.0,9.61,10.82,,47.59359,-54.27349
2018-06-03 10:20:00+00:00,32.0,32.0,10.77,12.23,,47.59359,-54.27349
2018-06-03 10:30:00+00:00,36.0,38.0,11.67,12.93,,47.59359,-54.27349
2018-06-03 10:40:00+00:00,31.0,32.0,9.71,11.09,,47.59359,-54.27349
2018-06-03 10:50:00+00:00,35.0,38.0,11.77,13.97,,47.59359,-54.27349
2018-06-03 11:00:00+00:00,33.0,27.0,10.55,12.13,,47.59359,-54.27349
2018-06-03 11:10:00+00:00,31.0,35.0,11.53,13.55,,47.59359,-54.27349
2018-06-03 11:20:00+00:00,34.0,32.0,10.89,12.88,,47.59359,-54.27349
2018-06-03 11:30:00+00:00,33.0,35.0,11.4,12.94,,47.59359,-54.27349
2018-06-03 11:40:00+00:00,29.0,33.0,9.65,10.73,,47.59359,-54.27349
2018-06-03 11:50:00+00:00,33.0,35.0,9.16,10.77,,47.59359,-54.27349
2018-06-03 12:00:00+00:00,30.0,26.0,9.87,11.7,,47.59359,-54.27349
2018-06-03 12:10:00+00:00,32.0,30.0,9.82,11.39,,47.59359,-54.27349
2018-06-03 12:20:00+00:00,34.0,35.0,8.8,9.68,,47.59359,-54.27349
2018-06-03 12:30:00+00:00,34.0,39.0,9.92,11.48,,47.59359,-54.27349
2018-06-03 12:40:00+00:00,35.0,35.0,10.73,12.18,,47.59359,-54.27349
2018-06-03 12:50:00+00:00,36.0,44.0,9.91,12.39,,47.59359,-54.27349
2018-06-03 13:00:00+00:00,33.0,39.0,10.71,12.74,,47.59359,-54.27349
2018-06-03 13:10:00+00:00,39.0,44.0,9.2,13.01,,47.59359,-54.27349
2018-06-03 13:20:00+00:00,34.0,37.0,11.48,12.87,,47.59359,-54.27349
2018-06-03 13:30:00+00:00,35.0,40.0,9.94,11.15,,47.59359,-54.27349
2018-06-03 13:40:00+00:00,31.0,35.0,10.43,12.61,,47.59359,-54.27349
2018-06-03 13:50:00+00:00,36.0,31.0,9.95,11.2,,47.59359,-54.27349
2018-06-03 14:00:00+00:00,24.0,27.0,10.12,11.45,,47.59359,-54.27349
2018-06-03 14:10:00+00:00,31.0,32.0,10.76,12.83,,47.59359,-54.27349
2018-06-03 14:20:00+00:00,27.0,28.0,12.05,13.61,,47.59359,-54.27349
2018-06-03 14:30:00+00:00,33.0,34.0,11.25,12.29,,47.59359,-54.27349
2018-06-03 14:40:00+00:00,34.0,36.0,10.77,11.97,,47.59359,-54.27349
2018-06-03 14:50:00+00:00,24.0,28.0,10.93,12.54,,47.59359,-54.27349
2018-06-03 15:00:00+00:00,22.0,18.0,9.87,11.47,,47.59359,-54.27349
2018-06-03 15:10:00+00:00,34.0,34.0,13.04,15.06,,47.59359,-54.27349
2018-06-03 15:20:00+00:00,29.0,31.0,10.8,12.31,,47.59359,-54.27349
2018-06-03 15:30:00+00:00,31.0,35.0,11.49,13.3,,47.59359,-54.27349
2018-06-03 15:40:00+00:00,27.0,21.0,12.9,15.23,,47.59359,-54.27349
2018-06-03 15:50:00+00:00,30.0,29.0,13.0,14.4,,47.59359,-54.27349
2018-06-03 16:00:00+00:00,26.0,27.0,13.94,15.14,,47.59359,-54.27349
2018-06-03 16:10:00+00:00,33.0,39.0,14.43,16.24,,47.59359,-54.27349
2018-06-03 16:20:00+00:00,27.0,28.0,11.32,12.66,,47.59359,-54.27349
2018-06-03 16:30:00+00:00,29.0,33.0,14.67,16.4,,47.59359,-54.27349
2018-06-03 16:40:00+00:00,31.0,33.0,15.38,17.25,,47.59359,-54.27349
2018-06-03 16:50:00+00:00,31.0,35.0,14.94,16.51,,47.59359,-54.27349
2018-06-03 17:00:00+00:00,27.0,21.0,14.65,17.36,,47.59359,-54.27349
2018-06-03 17:10:00+00:00,25.0,30.0,14.84,17.27,,47.59359,-54.27349
2018-06-03 17:20:00+00:00,30.0,32.0,11.82,15.08,,47.59359,-54.27349
2018-06-03 17:30:00+00:00,36.0,40.0,16.56,19.16,,47.59359,-54.27349
2018-06-03 17:40:00+00:00,37.0,37.0,15.99,18.4,,47.59359,-54.27349
2018-06-03 17:50:00+00:00,36.0,39.0,15.97,18.18,,47.59359,-54.27349
2018-06-03 18:00:00+00:00,31.0,31.0,13.44,15.44,,47.59359,-54.27349
2018-06-03 18:10:00+00:00,31.0,34.0,12.98,15.21,,47.59359,-54.27349
2018-06-03 18:20:00+00:00,37.0,42.0,14.12,15.71,,47.59359,-54.27349
2018-06-03 18:30:00+00:00,36.0,38.0,16.27,19.97,,47.59359,-54.27349
2018-06-03 18:40:00+00:00,26.0,32.0,15.24,18.76,,47.59359,-54.27349
2018-06-03 18:50:00+00:00,28.0,25.0,13.07,15.34,,47.59359,-54.27349
2018-06-03 19:00:00+00:00,30.0,30.0,16.05,18.34,,47.59359,-54.27349
2018-06-03 19:10:00+00:00,32.0,29.0,16.46,18.99,,47.59359,-54.27349
2018-06-03 19:20:00+00:00,35.0,38.0,15.22,18.7,,47.59359,-54.27349
2018-06-03 19:30:00+00:00,26.0,33.0,13.58,16.05,,47.59359,-54.27349
2018-06-03 19:40:00+00:00,34.0,39.0,14.67,18.24,,47.59359,-54.27349
2018-06-03 19:50:00+00:00,31.0,32.0,16.81,19.98,,47.59359,-54.27349
2018-06-03 20:00:00+00:00,30.0,25.0,14.54,18.05,,47.59359,-54.27349
2018-06-03 20:10:00+00:00,32.0,37.0,13.41,17.74,,47.59359,-54.27349
2018-06-03 20:20:00+00:00,33.0,27.0,12.8,16.0,,47.59359,-54.27349
2018-06-03 20:30:00+00:00,24.0,14.0,15.65,19.9,,47.59359,-54.27349
2018-06-03 20:40:00+00:00,28.0,30.0,14.08,16.48,,47.59359,-54.27349
2018-06-03 20:50:00+00:00,29.0,36.0,15.82,18.51,,47.59359,-54.27349
2018-06-03 21:00:00+00:00,30.0,28.0,14.86,17.3,,47.59359,-54.27349
2018-06-03 21:10:00+00:00,31.0,29.0,15.05,17.27,,47.59359,-54.27349
2018-06-03 21:20:00+00:00,35.0,33.0,14.96,18.05,,47.59359,-54.27349
2018-06-03 21:30:00+00:00,28.0,25.0,13.23,16.06,,47.59359,-54.27349
2018-06-03 21:40:00+00:00,29.0,33.0,13.29,15.06,,47.59359,-54.27349
2018-06-03 21:50:00+00:00,26.0,27.0,13.23,15.8,,47.59359,-54.27349
2018-06-03 22:00:00+00:00,29.0,17.0,12.68,15.51,,47.59359,-54.27349
2018-06-03 22:10:00+00:00,22.0,17.0,11.11,13.82,,47.59359,-54.27349
2018-06-03 22:20:00+00:00,29.0,31.0,15.53,17.6,,47.59359,-54.27349
2018-06-03 22:30:00+00:00,21.0,28.0,12.49,14.99,,47.59359,-54.27349
2018-06-03 22:40:00+00:00,26.0,36.0,15.19,17.29,,47.59359,-54.27349
2018-06-03 22:50:00+00:00,21.0,16.0,10.49,12.79,,47.59359,-54.27349
2018-06-03 23:00:00+00:00,31.0,38.0,12.14,13.48,,47.59359,-54.27349
2018-06-03 23:10:00+00:00,25.0,28.0,12.27,16.59,,47.59359,-54.27349
2018-06-03 23:20:00+00:00,28.0,30.0,12.97,14.91,,47.59359,-54.27349
2018-06-03 23:30:00+00:00,23.0,30.0,13.09,15.43,,47.59359,-54.27349
2018-06-03 23:40:00+00:00,23.0,30.0,13.87,16.44,,47.59359,-54.27349
2018-06-03 23:50:00+00:00,30.0,35.0,13.24,15.56,,47.59359,-54.27349
